[[{"header":{"parameterUnit":"m.s-1","parameterCategory":1,"la1":30.2991,"la2":30.254,"lo1":-89.0895,"lo2":-89.0444,"dy":0.0017,"dx":0.0017,"nx":28,"ny":28,"refTime":"2025-01-23T09:00:00:Z","depth":0,"parameterNumber":2,"parameterNumberName":"U-component_of_WINDS"},"data":[0,0,0,0,0,0,0,0,0,0,0,0,0,0,0,0,0,0,0,0,0,0,0,0,0,0,0,0,0,0,0,0,0,0,0,0,0,0,0,0,0,0,0,0,0,0,0,0,0,0,0,0,0,0,0,0,0,0,-0.1482,-0.1483,0,-0.1557,-0.1558,-0.1559,-0.1545,-0.1544,-0.1543,-0.1542,-0.1621,-0.1625,-0.1628,0,0,0,0,0,0,0,0,0,0,0,0,0,-0.1329,-0.1331,-0.1482,-0.1483,-0.1484,-0.1557,-0.1558,-0.1559,-0.1546,-0.1544,-0.1542,-0.1541,-0.162,-0.1624,-0.1628,0,0,0,0,0,0,0,0,0,0,0,0,0,-0.1399,-0.1332,-0.1481,-0.1486,-0.1487,-0.1557,-0.1558,-0.1559,-0.1546,-0.1544,-0.1542,-0.154,-0.1619,-0.1624,-0.1629,-0.17,0,0,-0.1644,-0.1647,0,0,0,0,0,0,0,0,-0.1395,-0.1404,-0.1484,-0.1486,-0.1487,-0.154,-0.1533,-0.1607,-0.1547,-0.1524,-0.1541,-0.1539,-0.1596,-0.1603,-0.1621,-0.1704,-0.1707,-0.1645,-0.1648,-0.165,-0.1652,0,0,0,0,0,0,0,-0.139,-0.1401,-0.1512,-0.1485,-0.1487,-0.1485,-0.1492,-0.1547,-0.157,-0.1525,-0.1525,-0.1534,-0.1596,-0.1617,-0.1623,-0.1709,-0.1645,-0.1649,-0.1652,-0.1654,-0.1853,-0.1855,0,0,0,0,0,0,-0.1383,-0.1397,-0.1509,-0.1514,-0.1435,-0.1489,-0.1498,-0.1525,-0.157,-0.1574,-0.1535,-0.1533,-0.1609,-0.1617,-0.1626,-0.1713,-0.165,-0.1655,-0.1658,-0.1851,-0.1853,-0.1856,0,0,0,0,0,0,-0.138,-0.1393,-0.1506,-0.1455,-0.1469,-0.1494,-0.1524,-0.1527,-0.1548,-0.1577,-0.1581,-0.1552,-0.1608,-0.1619,-0.1682,-0.1715,-0.1657,-0.1662,-0.1848,-0.1852,-0.1855,-0.1886,0,0,0,0,0,0,-0.1376,-0.1392,-0.1419,-0.1456,-0.1472,-0.156,-0.1526,-0.153,-0.1556,-0.1553,-0.1593,-0.1598,-0.1607,-0.1674,-0.1687,-0.1721,-0.1666,-0.1845,-0.185,-0.1854,-0.1882,-0.189,-0.1897,0,0,0,0,0,-0.137,-0.1426,-0.1421,-0.1434,-0.1506,-0.1562,-0.1571,-0.158,-0.1559,-0.1586,-0.1605,-0.1597,-0.1709,-0.1681,-0.1695,-0.1731,-0.1843,-0.1848,-0.1853,-0.1879,-0.1889,-0.1897,0,0,0,0,0,0,-0.1394,-0.1431,-0.1426,-0.1494,-0.1525,-0.156,-0.1595,-0.159,-0.1628,-0.1624,-0.1633,-0.1642,-0.1706,-0.1725,-0.1692,-0.1802,-0.1773,-0.1781,-0.1788,-0.1797,-0.1805,-0.1799,-0.167,0,0,0,0,0,-0.1407,-0.1448,-0.1478,-0.1536,-0.1552,-0.157,-0.1595,-0.1599,-0.1631,-0.1645,-0.1668,-0.17,-0.1743,-0.1771,-0.1812,-0.1884,-0.1893,-0.1916,-0.1924,-0.1929,-0.1937,-0.1977,-0.1987,-0.1873,-0.1872,-0.1872,0,0,-0.1434,-0.146,-0.1485,-0.1542,-0.1566,-0.1609,-0.1582,-0.1629,-0.1661,-0.1652,-0.1713,-0.1731,-0.1768,-0.1835,-0.1867,-0.1853,-0.197,-0.1936,-0.194,-0.1945,-0.1983,-0.1994,-0.2003,-0.1876,-0.1875,-0.1875,0,0,-0.1507,-0.153,-0.1581,-0.1605,-0.1642,-0.1654,-0.1666,-0.1701,-0.1712,-0.1773,-0.1767,-0.1806,-0.1879,-0.1905,-0.1928,-0.201,-0.2004,-0.2023,-0.2062,-0.2101,-0.211,-0.2118,-0.2147,-0.2158,-0.203,-0.203,-0.203,0,-0.1537,-0.1602,-0.1608,-0.1655,-0.168,-0.1672,-0.1724,-0.1748,-0.1796,-0.1814,-0.1798,-0.1889,-0.1913,-0.1987,-0.2007,-0.2026,-0.204,-0.2019,-0.2108,-0.2116,-0.2124,-0.2152,-0.2163,-0.2032,-0.2032,-0.2032,-0.2031,0,-0.1637,-0.1682,-0.1719,-0.1764,-0.1793,-0.1843,-0.1857,-0.1886,-0.1886,-0.19,-0.1962,-0.1991,-0.2037,-0.2055,-0.2056,-0.2129,-0.2119,-0.2105,-0.2077,-0.2136,-0.2163,-0.2174,-0.2035,-0.2034,-0.2034,-0.2033,0,0,-0.1729,-0.1776,-0.1789,-0.181,-0.1849,-0.1884,-0.1933,-0.1977,-0.2002,-0.2035,-0.2077,-0.2139,-0.2126,-0.2152,-0.2156,-0.219,-0.2253,-0.2172,-0.2173,-0.2187,-0.2335,-0.2346,-0.2359,-0.2249,-0.2251,-0.2252,-0.2332,0,-0.1806,-0.1891,-0.1898,-0.1976,-0.2017,-0.201,-0.2053,-0.2081,-0.2095,-0.2133,-0.2149,-0.2192,-0.2171,-0.2187,-0.222,-0.2238,-0.2283,-0.2233,-0.2289,-0.2291,-0.2281,-0.2373,-0.2385,-0.2459,-0.2343,-0.2345,-0.2346,0,-0.1907,-0.1942,-0.2024,-0.2057,-0.2075,-0.2113,-0.2154,-0.219,-0.2222,-0.223,-0.2259,-0.2258,-0.2309,-0.2277,-0.2348,-0.2313,-0.2336,-0.2349,-0.2352,-0.2358,-0.2323,-0.2383,-0.2483,-0.2494,-0.2362,-0.2361,-0.236,0,-0.1966,-0.2034,-0.2092,-0.211,-0.2149,-0.2176,-0.2194,-0.2225,-0.2251,-0.2286,-0.2304,-0.2345,-0.2368,-0.2401,-0.2411,-0.2387,-0.2482,-0.2451,-0.249,-0.249,-0.2512,-0.251,-0.2618,-0.2525,-0.2525,-0.2524,-0.2524,0,-0.2052,-0.2103,-0.2119,-0.2155,-0.2211,-0.2218,-0.2273,-0.229,-0.2317,-0.2356,-0.2352,-0.2389,-0.24,-0.2439,-0.2448,-0.2505,-0.2515,-0.2523,-0.2525,-0.2524,-0.2524,-0.2541,-0.2536,-0.2527,-0.2527,-0.2526,-0.2526,0,-0.2129,-0.2141,-0.2204,-0.2235,-0.2244,-0.2285,-0.2312,-0.2347,-0.2359,-0.2409,-0.2421,-0.2441,-0.2486,-0.25,-0.2555,-0.2561,-0.2628,-0.2625,-0.2617,-0.2617,-0.2656,-0.2653,-0.2779,-0.2796,-0.2691,-0.2692,-0.2693,0,-0.2183,-0.2222,-0.2257,-0.2282,-0.2301,-0.2342,-0.2368,-0.2376,-0.2404,-0.2443,-0.2473,-0.2518,-0.2554,-0.2627,-0.2647,-0.2689,-0.2688,-0.2729,-0.2694,-0.2692,-0.2689,-0.2687,-0.2691,-0.2736,-0.2737,-0.2738,-0.2739,0,-0.2279,-0.2283,-0.232,-0.236,-0.2391,-0.2423,-0.2454,-0.2475,-0.2487,-0.2519,-0.2564,-0.2592,-0.2648,-0.2693,-0.2735,-0.2754,-0.2749,-0.2749,-0.2761,-0.2761,-0.2755,-0.2759,-0.2636,-0.2747,-0.2746,-0.2745,-0.2745,-0.2745,-0.2347,-0.238,-0.241,-0.2452,-0.2476,-0.2504,-0.2538,-0.2554,-0.2593,-0.2638,-0.264,-0.269,-0.2721,-0.2777,-0.2798,-0.2838,-0.2826,-0.2842,-0.2847,-0.2851,-0.2854,-0.2747,-0.2845,-0.2845,-0.2845,-0.2845,-0.2845,0,-0.2443,-0.2461,-0.2499,-0.2542,-0.2575,-0.2566,-0.2599,-0.2627,-0.2671,-0.27,-0.2735,-0.2788,-0.2831,-0.2854,-0.2896,-0.2924,-0.2922,-0.2935,-0.2933,-0.2938,-0.2862,-0.2848,-0.2935,-0.2935,-0.2935,-0.2935,-0.2935,-0.2935,-0.2497,-0.2553,-0.2561,-0.2629,-0.2647,-0.2696,-0.2715,-0.2742,-0.2765,-0.2824,-0.2859,-0.2873,-0.29,-0.2944,-0.2983,-0.2989,-0.3005,-0.3019,-0.3023,-0.2952,-0.2943,-0.2934,-0.2921,-0.3022,-0.3022,-0.3095,-0.3096,-0.3097]},{"header":{"parameterUnit":"m.s-1","parameterCategory":1,"la1":30.2991,"la2":30.254,"lo1":-89.0895,"lo2":-89.0444,"dy":0.0017,"dx":0.0017,"nx":28,"ny":28,"refTime":"2025-01-23T09:00:00:Z","depth":0,"parameterNumber":3,"parameterNumberName":"V-component_of_WINDS"},"data":[0,0,0,0,0,0,0,0,0,0,0,0,0,0,0,0,0,0,0,0,0,0,0,0,0,0,0,0,0,0,0,0,0,0,0,0,0,0,0,0,0,0,0,0,0,0,0,0,0,0,0,0,0,0,0,0,0,0,-3.3748,-3.3749,0,-3.384,-3.3841,-3.3842,-3.3767,-3.3764,-3.3761,-3.3758,-3.385,-3.3855,-3.386,0,0,0,0,0,0,0,0,0,0,0,0,0,-3.3505,-3.351,-3.3748,-3.3749,-3.3751,-3.384,-3.3841,-3.3843,-3.3767,-3.3764,-3.376,-3.3756,-3.3848,-3.3854,-3.3861,0,0,0,0,0,0,0,0,0,0,0,0,0,-3.3605,-3.3512,-3.3748,-3.3724,-3.3723,-3.384,-3.3841,-3.3843,-3.3768,-3.3763,-3.3759,-3.3754,-3.3846,-3.3854,-3.3862,-3.4007,0,0,-3.3887,-3.389,0,0,0,0,0,0,0,0,-3.36,-3.3614,-3.3726,-3.3726,-3.3725,-3.3787,-3.3789,-3.3898,-3.3769,-3.3751,-3.3757,-3.3752,-3.3833,-3.3842,-3.3869,-3.4012,-3.4016,-3.3887,-3.3892,-3.3896,-3.3898,0,0,0,0,0,0,0,-3.3593,-3.361,-3.3785,-3.3728,-3.3727,-3.3708,-3.3717,-3.381,-3.3817,-3.3752,-3.3747,-3.3759,-3.3831,-3.3862,-3.3871,-3.4017,-3.3887,-3.3894,-3.3899,-3.3903,-3.4283,-3.4288,0,0,0,0,0,0,-3.3589,-3.3605,-3.3782,-3.3787,-3.3649,-3.3716,-3.3726,-3.3772,-3.3816,-3.3818,-3.3763,-3.3755,-3.385,-3.3861,-3.3874,-3.4048,-3.3896,-3.3903,-3.3908,-3.4278,-3.4284,-3.429,0,0,0,0,0,0,-3.3584,-3.3605,-3.3778,-3.3695,-3.3715,-3.3725,-3.3777,-3.3776,-3.3807,-3.3824,-3.3825,-3.3793,-3.3847,-3.3862,-3.3975,-3.405,-3.3907,-3.3914,-3.4272,-3.428,-3.4287,-3.4396,0,0,0,0,0,0,-3.3577,-3.3604,-3.366,-3.3696,-3.372,-3.3879,-3.3782,-3.3781,-3.3821,-3.3812,-3.3852,-3.3855,-3.3844,-3.3963,-3.3983,-3.4058,-3.3921,-3.4265,-3.4276,-3.4285,-3.4386,-3.4407,-3.4425,0,0,0,0,0,-3.3569,-3.3686,-3.3663,-3.3685,-3.379,-3.3883,-3.3896,-3.3883,-3.3827,-3.3883,-3.3895,-3.3853,-3.4038,-3.3975,-3.3997,-3.4076,-3.426,-3.4273,-3.4284,-3.4378,-3.4403,-3.4424,0,0,0,0,0,0,-3.3657,-3.3691,-3.3665,-3.3798,-3.3839,-3.387,-3.394,-3.391,-3.3966,-3.3955,-3.3935,-3.3945,-3.4063,-3.408,-3.401,-3.4219,-3.414,-3.4157,-3.4204,-3.4228,-3.4247,-3.4241,-3.3927,0,0,0,0,0,-3.3693,-3.3766,-3.379,-3.3906,-3.3927,-3.3931,-3.397,-3.3957,-3.3997,-3.4013,-3.4033,-3.4073,-3.414,-3.4185,-3.4247,-3.4388,-3.4396,-3.4453,-3.4472,-3.4488,-3.4503,-3.4579,-3.4605,-3.4329,-3.4329,-3.4329,0,0,-3.3766,-3.3793,-3.384,-3.3924,-3.3954,-3.403,-3.3945,-3.4029,-3.4085,-3.4026,-3.4134,-3.4149,-3.4193,-3.432,-3.4377,-3.4338,-3.4581,-3.4503,-3.4515,-3.4522,-3.4594,-3.462,-3.4643,-3.4337,-3.4335,-3.4334,0,0,-3.3939,-3.3966,-3.4066,-3.4097,-3.4143,-3.4145,-3.4168,-3.4205,-3.4213,-3.4321,-3.4279,-3.4344,-3.446,-3.4493,-3.4525,-3.471,-3.4674,-3.4731,-3.4833,-3.4907,-3.4929,-3.4948,-3.5015,-3.5039,-3.4746,-3.4746,-3.4746,0,-3.4024,-3.4137,-3.412,-3.4208,-3.4246,-3.4196,-3.4297,-3.4327,-3.4391,-3.4419,-3.4374,-3.4519,-3.4544,-3.4679,-3.4724,-3.4751,-3.4778,-3.4727,-3.4927,-3.4946,-3.4964,-3.5027,-3.5052,-3.4753,-3.4752,-3.4751,-3.4751,0,-3.424,-3.432,-3.4394,-3.4458,-3.4504,-3.4598,-3.4595,-3.4643,-3.4625,-3.4631,-3.4742,-3.4771,-3.4839,-3.4869,-3.4852,-3.5002,-3.4976,-3.493,-3.485,-3.4997,-3.5056,-3.508,-3.4762,-3.476,-3.4758,-3.4756,0,0,-3.4473,-3.4526,-3.4554,-3.4583,-3.463,-3.469,-3.4781,-3.4848,-3.4891,-3.4936,-3.5012,-3.5111,-3.5068,-3.5105,-3.509,-3.5155,-3.5301,-3.5101,-3.5101,-3.5138,-3.5469,-3.5505,-3.5533,-3.5277,-3.5282,-3.5285,-3.5465,0,-3.4648,-3.4808,-3.4795,-3.4945,-3.5019,-3.4972,-3.5051,-3.5088,-3.5096,-3.5158,-3.5166,-3.5238,-3.5175,-3.5197,-3.5259,-3.527,-3.5368,-3.5257,-3.5348,-3.5351,-3.534,-3.5564,-3.5602,-3.5771,-3.5488,-3.5492,-3.5495,0,-3.4875,-3.493,-3.5088,-3.5124,-3.5154,-3.5226,-3.5286,-3.5347,-3.5387,-3.5388,-3.5429,-3.5404,-3.5495,-3.5412,-3.5537,-3.5463,-3.5498,-3.5509,-3.5516,-3.5525,-3.5433,-3.558,-3.5824,-3.585,-3.5531,-3.5528,-3.5526,0,-3.503,-3.5143,-3.5252,-3.5278,-3.5322,-3.5374,-3.5395,-3.5431,-3.5472,-3.5524,-3.5551,-3.5613,-3.5648,-3.5696,-3.5688,-3.5628,-3.5816,-3.5732,-3.5819,-3.582,-3.5862,-3.586,-3.6116,-3.5883,-3.5883,-3.5882,-3.5882,0,-3.5229,-3.5328,-3.5323,-3.539,-3.5499,-3.5483,-3.5591,-3.5606,-3.5638,-3.5707,-3.5669,-3.5735,-3.572,-3.5784,-3.5778,-3.5883,-3.5898,-3.5902,-3.5899,-3.5906,-3.5906,-3.593,-3.5919,-3.5889,-3.5887,-3.5886,-3.5885,0,-3.5421,-3.5422,-3.5538,-3.5571,-3.5581,-3.5661,-3.5688,-3.5751,-3.5756,-3.5844,-3.5863,-3.587,-3.5944,-3.5941,-3.6024,-3.602,-3.615,-3.6133,-3.6137,-3.6134,-3.6221,-3.6214,-3.6504,-3.6541,-3.6283,-3.6285,-3.6287,0,-3.5549,-3.5624,-3.5665,-3.5709,-3.5733,-3.5804,-3.5847,-3.5833,-3.5878,-3.593,-3.5988,-3.6058,-3.6115,-3.6235,-3.6247,-3.6311,-3.6296,-3.6393,-3.6305,-3.631,-3.6299,-3.6295,-3.6303,-3.6411,-3.6414,-3.6416,-3.6418,0,-3.5775,-3.5772,-3.5834,-3.5898,-3.595,-3.5998,-3.6043,-3.6081,-3.6072,-3.6124,-3.62,-3.6244,-3.633,-3.6401,-3.6462,-3.6482,-3.645,-3.6446,-3.6469,-3.6478,-3.6478,-3.648,-3.6185,-3.6439,-3.6437,-3.6436,-3.6435,-3.6434,-3.594,-3.6005,-3.6044,-3.6115,-3.6147,-3.619,-3.6252,-3.6264,-3.6327,-3.6397,-3.6384,-3.647,-3.6508,-3.6587,-3.6613,-3.6679,-3.6644,-3.6678,-3.6687,-3.6696,-3.6706,-3.6466,-3.6689,-3.6689,-3.6688,-3.6688,-3.6687,0,-3.6166,-3.6189,-3.6254,-3.6318,-3.6374,-3.6339,-3.6386,-3.6435,-3.6511,-3.655,-3.6606,-3.6693,-3.6762,-3.6779,-3.6845,-3.6895,-3.6881,-3.6912,-3.6909,-3.6915,-3.6733,-3.6707,-3.6922,-3.6922,-3.6922,-3.6922,-3.6922,-3.6922,-3.629,-3.6398,-3.6399,-3.6523,-3.6544,-3.6629,-3.6659,-3.6698,-3.6729,-3.6829,-3.6886,-3.6897,-3.6927,-3.6994,-3.7056,-3.7059,-3.7085,-3.7123,-3.712,-3.6951,-3.6927,-3.6905,-3.688,-3.7128,-3.7129,-3.7296,-3.7298,-3.7299]}]]